• en France
  • Liste des pays
  • À 7 jours
  • Température de l'eau
  • Carte satellitaire
  • Carte météo
  • Widgets météo
  • user-avatar
    Se connecter

    Météo par heure à Saurimo

    Ce jour, 18 Septembre, Mardi

    Heure Température Précipitation Vent Pression Humidité
    00:00 +26°C° 0 mm 1 m/s 670 mmHg 51%
    01:00 +23°C° 0 mm 0 m/s 670 mmHg 59%
    02:00 +23°C° 0 mm 0 m/s 669 mmHg 61%
    03:00 +24°C° 0 mm 1 m/s 669 mmHg 62%
    04:00 +24°C° 0 mm 1 m/s 669 mmHg 63%
    05:00 +25°C° 0 mm 1 m/s 669 mmHg 59%
    06:00 +26°C° 0 mm 1 m/s 670 mmHg 55%
    07:00 +28°C° 0 mm 1 m/s 671 mmHg 49%
    08:00 +32°C° 0 mm 1 m/s 671 mmHg 40%
    09:00 +35°C° 0 mm 1 m/s 672 mmHg 32%
    10:00 +39°C° 0 mm 1 m/s 672 mmHg 23%
    11:00 +38°C° 0 mm 2 m/s 672 mmHg 21%
    12:00 +38°C° 0 mm 2 m/s 671 mmHg 19%
    13:00 +37°C° 0 mm 2 m/s 671 mmHg 21%
    14:00 +37°C° 0 mm 2 m/s 670 mmHg 21%
    15:00 +36°C° 0 mm 2 m/s 670 mmHg 21%
    16:00 +36°C° 0 mm 2 m/s 670 mmHg 21%
    17:00 +34°C° 0 mm 1 m/s 670 mmHg 23%
    18:00 +33°C° 0 mm 1 m/s 670 mmHg 25%
    19:00 +29°C° 0 mm 0 m/s 670 mmHg 27%
    20:00 +31°C° 0 mm 1 m/s 670 mmHg 28%
    21:00 +30°C° 0 mm 1 m/s 670 mmHg 29%
    22:00 +30°C° 0 mm 1 m/s 671 mmHg 30%
    23:00 +29°C° 0 mm 1 m/s 670 mmHg 32%

    Demain, 19 Septembre, Mercredi

    Heure Température Précipitation Vent Pression Humidité
    00:00 +29°C° 0 mm 1 m/s 670 mmHg 34%
    01:00 +28°C° 0 mm 1 m/s 670 mmHg 36%
    02:00 +27°C° 0 mm 1 m/s 669 mmHg 38%
    03:00 +26°C° 0 mm 1 m/s 669 mmHg 41%
    04:00 +25°C° 0 mm 1 m/s 669 mmHg 43%
    05:00 +26°C° 0 mm 1 m/s 669 mmHg 41%
    06:00 +27°C° 0 mm 1 m/s 670 mmHg 39%
    07:00 +29°C° 0 mm 1 m/s 670 mmHg 37%
    08:00 +32°C° 0 mm 1 m/s 671 mmHg 31%
    09:00 +36°C° 0 mm 1 m/s 672 mmHg 25%
    10:00 +38°C° 0 mm 0 m/s 673 mmHg 19%
    11:00 +41°C° 0 mm 1 m/s 672 mmHg 17%
    12:00 +41°C° 0 mm 2 m/s 671 mmHg 15%
    13:00 +41°C° 0 mm 2 m/s 670 mmHg 13%
    14:00 +40°C° 0 mm 2 m/s 670 mmHg 14%
    15:00 +39°C° 0 mm 1 m/s 669 mmHg 14%
    16:00 +37°C° 0 mm 1 m/s 668 mmHg 14%
    17:00 +36°C° 0 mm 1 m/s 669 mmHg 16%
    18:00 +34°C° 0 mm 1 m/s 669 mmHg 17%
    19:00 +32°C° 0 mm 1 m/s 669 mmHg 19%
    20:00 +32°C° 0 mm 1 m/s 669 mmHg 20%
    21:00 +31°C° 0 mm 1 m/s 670 mmHg 21%
    22:00 +31°C° 0 mm 1 m/s 670 mmHg 22%
    23:00 +30°C° 0 mm 1 m/s 670 mmHg 25%

    Après-demain, 20 Septembre, Jeudi

    Heure Température Précipitation Vent Pression Humidité
    00:00 +29°C° 0 mm 1 m/s 669 mmHg 28%
    01:00 +28°C° 0 mm 1 m/s 669 mmHg 31%
    02:00 +27°C° 0 mm 1 m/s 669 mmHg 34%
    03:00 +26°C° 0 mm 1 m/s 668 mmHg 36%
    04:00 +23°C° 0 mm 0 m/s 668 mmHg 39%
    05:00 +24°C° 0 mm 0 m/s 669 mmHg 37%
    06:00 +26°C° 0 mm 0 m/s 670 mmHg 35%
    07:00 +27°C° 0 mm 0 m/s 671 mmHg 33%
    08:00 +31°C° 0 mm 1 m/s 671 mmHg 30%
    09:00 +35°C° 0 mm 2 m/s 672 mmHg 27%
    10:00 +37°C° 0 mm 2 m/s 672 mmHg 24%
    11:00 +37°C° 0 mm 2 m/s 671 mmHg 23%
    12:00 +37°C° 0 mm 2 m/s 670 mmHg 22%
    13:00 +37°C° 0 mm 2 m/s 669 mmHg 21%
    14:00 +36°C° 0 mm 2 m/s 669 mmHg 21%
    15:00 +35°C° 0 mm 1 m/s 669 mmHg 22%
    16:00 +35°C° 0 mm 1 m/s 668 mmHg 22%
    17:00 +33°C° 0 mm 1 m/s 668 mmHg 25%
    18:00 +31°C° 0 mm 1 m/s 668 mmHg 27%
    19:00 +29°C° 0 mm 1 m/s 668 mmHg 30%
    20:00 +29°C° 0 mm 1 m/s 669 mmHg 32%
    21:00 +28°C° 0 mm 1 m/s 669 mmHg 34%
    22:00 +27°C° 0 mm 1 m/s 669 mmHg 35%
    23:00 +27°C° 0 mm 1 m/s 669 mmHg 38%

    21 Septembre, Vendredi

    Heure Température Précipitation Vent Pression Humidité
    00:00 +26°C° 0 mm 1 m/s 669 mmHg 41%
    01:00 +25°C° 0 mm 2 m/s 668 mmHg 43%
    02:00 +25°C° 0 mm 2 m/s 668 mmHg 48%
    03:00 +24°C° 0 mm 1 m/s 668 mmHg 53%
    04:00 +24°C° 0 mm 1 m/s 668 mmHg 58%
    05:00 +25°C° 0 mm 2 m/s 669 mmHg 56%
    06:00 +25°C° 0 mm 2 m/s 670 mmHg 55%
    07:00 +26°C° 0 mm 2 m/s 670 mmHg 53%
    08:00 +30°C° 0 mm 2 m/s 671 mmHg 45%
    09:00 +34°C° 0 mm 2 m/s 672 mmHg 38%
    10:00 +36°C° 0 mm 1 m/s 673 mmHg 30%
    11:00 +36°C° 0 mm 1 m/s 672 mmHg 28%
    12:00 +35°C° 0 mm 1 m/s 671 mmHg 27%
    13:00 +35°C° 0 mm 1 m/s 669 mmHg 26%
    14:00 +35°C° 0 mm 1 m/s 669 mmHg 26%
    15:00 +34°C° 0 mm 1 m/s 669 mmHg 26%
    16:00 +34°C° 0 mm 1 m/s 669 mmHg 26%
    17:00 +33°C° 0 mm 1 m/s 669 mmHg 29%
    18:00 +31°C° 0 mm 1 m/s 669 mmHg 32%
    19:00 +29°C° 0 mm 1 m/s 669 mmHg 35%
    20:00 +29°C° 0 mm 1 m/s 669 mmHg 38%
    21:00 +28°C° 0 mm 1 m/s 670 mmHg 40%
    22:00 +27°C° 0 mm 1 m/s 670 mmHg 43%
    23:00 +26°C° 0 mm 1 m/s 669 mmHg 45%

    22 Septembre, Samedi

    Heure Température Précipitation Vent Pression Humidité
    00:00 +25°C° 0 mm 1 m/s 669 mmHg 47%
    01:00 +25°C° 0 mm 1 m/s 668 mmHg 49%
    02:00 +24°C° 0 mm 1 m/s 668 mmHg 52%
    03:00 +24°C° 0 mm 1 m/s 668 mmHg 54%
    04:00 +23°C° 0 mm 1 m/s 667 mmHg 56%
    05:00 +25°C° 0 mm 1 m/s 668 mmHg 52%
    06:00 +26°C° 0 mm 1 m/s 669 mmHg 49%
    07:00 +27°C° 0 mm 1 m/s 670 mmHg 45%
    08:00 +31°C° 0 mm 1 m/s 671 mmHg 37%
    09:00 +34°C° 0 mm 1 m/s 671 mmHg 29%
    10:00 +39°C° 0 mm 1 m/s 672 mmHg 22%
    11:00 +38°C° 0 mm 2 m/s 671 mmHg 22%
    12:00 +37°C° 0 mm 2 m/s 670 mmHg 22%
    13:00 +36°C° 0 mm 2 m/s 669 mmHg 22%
    14:00 +36°C° 0 mm 2 m/s 669 mmHg 22%
    15:00 +35°C° 0 mm 1 m/s 669 mmHg 22%
    16:00 +35°C° 0 mm 1 m/s 669 mmHg 22%
    17:00 +33°C° 0 mm 1 m/s 669 mmHg 26%
    18:00 +32°C° 0 mm 2 m/s 669 mmHg 29%
    19:00 +30°C° 0 mm 2 m/s 669 mmHg 33%
    20:00 +29°C° 0 mm 2 m/s 669 mmHg 36%
    21:00 +28°C° 0 mm 1 m/s 669 mmHg 39%
    22:00 +27°C° 0 mm 1 m/s 669 mmHg 43%
    23:00 +26°C° 0 mm 1 m/s 669 mmHg 45%

    23 Septembre, Dimanche

    Heure Température Précipitation Vent Pression Humidité
    00:00 +26°C° 0 mm 1 m/s 668 mmHg 47%
    01:00 +25°C° 0 mm 1 m/s 668 mmHg 49%
    02:00 +25°C° 0 mm 1 m/s 668 mmHg 50%
    03:00 +24°C° 0 mm 1 m/s 668 mmHg 52%
    04:00 +22°C° 0 mm 0 m/s 668 mmHg 53%
    05:00 +25°C° 0 mm 1 m/s 669 mmHg 51%
    06:00 +26°C° 0 mm 2 m/s 670 mmHg 49%
    07:00 +27°C° 0 mm 2 m/s 670 mmHg 46%
    08:00 +30°C° 0 mm 2 m/s 671 mmHg 40%
    09:00 +34°C° 0 mm 2 m/s 671 mmHg 33%
    10:00 +38°C° 0 mm 2 m/s 672 mmHg 27%
    11:00 +36°C° 0 mm 1 m/s 671 mmHg 25%
    12:00 +36°C° 0 mm 1 m/s 670 mmHg 24%
    13:00 +36°C° 0 mm 1 m/s 669 mmHg 22%
    14:00 +36°C° 0 mm 1 m/s 669 mmHg 23%
    15:00 +36°C° 0 mm 2 m/s 669 mmHg 23%
    16:00 +36°C° 0 mm 2 m/s 669 mmHg 23%
    17:00 +34°C° 0 mm 2 m/s 669 mmHg 27%
    18:00 +32°C° 0 mm 1 m/s 669 mmHg 30%
    19:00 +30°C° 0 mm 1 m/s 669 mmHg 34%
    20:00 +29°C° 0 mm 1 m/s 669 mmHg 36%
    21:00 +26°C° 0 mm 0 m/s 669 mmHg 38%
    22:00 +25°C° 0 mm 0 m/s 669 mmHg 40%
    23:00 +27°C° 0 mm 1 m/s 669 mmHg 42%
    Voir plus